Flag for Australia Weather past 2 weeks in Alice Springs, Northern Territory, Australia

Now
73 °F

Clear.


Feels Like: 76 °F
Forecast: 54 / 80 °F
Wind: 8 mph from Southeast

Location: Alice Springs Aerodrome


UV Index: 7 (High)

Visibility: N/A


Pressure: 30.12 "Hg

Humidity: 27%

Dew point: 37 °F

Location of Alice SpringsLocation

Historic Weather in Alice Springs

°F

Alice Springs temperature yesterday

Maximum temperature yesterday: 81 °F (at 3:30 PM)
Minimum temperature yesterday: 50 °F (at 7:00 AM)
Average temperature yesterday: 64 °F

Past Weeks' High & Low Weather Summary

 TemperatureHumidityPressure
High88 °F (Apr 6, 1:30 PM)100% (Apr 8, 8:34 PM)30.21 "Hg (Apr 8, 8:34 PM)
Low50 °F (Apr 17, 7:00 AM)17% (Apr 18, 2:30 PM)29.89 "Hg (Apr 7, 2:30 PM)
Average69 °F65%30.04 "Hg
* Reported Apr 3 6:30 PM — Apr 18 6:30 PM, Alice Springs, Weather by CustomWeather, © 2014

Note: Actual official high and low records may vary slightly from our data, if they occured in-between our weather recording intervals... More about our weather records

Advertising

Historic Weather Conditions — Data for Previous 24 hours

 ConditionsComfort  
Time TempWeatherWind HumidityBarometerVisibility
6:30 PM
Apr 18
73 °FClear.8 mph27%30.12 "HgN/A
6:00 PM75 °FClear.9 mph24%30.12 "HgN/A
5:30 PM79 °FSunny.10 mph20%30.12 "HgN/A
5:00 PM79 °FSunny.13 mph20%30.09 "HgN/A
4:30 PM79 °FSunny.15 mph18%30.09 "Hg10 mi
4:00 PM81 °FSunny.16 mph17%30.09 "Hg10 mi
3:30 PM81 °FSunny.13 mph17%30.09 "Hg10 mi
3:00 PM81 °FSunny.13 mph18%30.12 "Hg10 mi
2:30 PM81 °FSunny.13 mph17%30.12 "Hg10 mi
2:00 PM79 °FSunny.13 mph18%30.12 "Hg10 mi
1:30 PM79 °FPassing clouds.7 mph21%30.12 "HgN/A
1:00 PM79 °FSunny.14 mph20%30.12 "Hg10 mi
12:30 PM77 °FSunny.15 mph22%30.15 "Hg10 mi
11:30 AM75 °FPassing clouds.10 mph25%30.18 "HgN/A
11:00 AM73 °FSunny.9 mph29%30.18 "Hg10 mi
10:30 AM73 °FSunny.10 mph27%30.18 "Hg10 mi
10:00 AM72 °FSunny.10 mph31%30.18 "Hg10 mi
9:30 AM70 °FPassing clouds.6 mph35%30.18 "HgN/A
8:30 AM63 °FSunny.No wind56%30.18 "Hg10 mi
7:30 AM54 °FSunny.6 mph82%30.18 "Hg10 mi
7:00 AM50 °FSunny.6 mph82%30.18 "Hg10 mi
6:30 AM52 °FSunny.6 mph77%30.18 "Hg10 mi
5:30 AM52 °FClear.6 mph82%30.15 "HgN/A
5:00 AM54 °FClear.5 mph72%30.15 "HgN/A
4:30 AM52 °FClear.6 mph82%30.15 "HgN/A
4:00 AM54 °FClear.5 mph72%30.15 "HgN/A
3:30 AM54 °FClear.6 mph77%30.15 "HgN/A
2:30 AM55 °FClear.5 mph67%30.15 "HgN/A
1:30 AM55 °FClear.6 mph72%30.15 "HgN/A
12:30 AM55 °FClear.5 mph72%30.18 "HgN/A
12:00 AM57 °FClear.No wind63%30.18 "HgN/A
11:30 PM
Apr 17
57 °FClear.No wind67%30.18 "HgN/A
11:00 PM59 °FClear.No wind59%30.18 "HgN/A
10:30 PM61 °FClear.5 mph52%30.18 "HgN/A
10:00 PM61 °FClear.2 mph55%30.18 "HgN/A
9:30 PM63 °FClear.6 mph56%30.18 "HgN/A
9:00 PM64 °FClear.6 mph52%30.15 "HgN/A
8:30 PM64 °FClear.6 mph46%30.15 "HgN/A
8:00 PM64 °FClear.8 mph46%30.15 "HgN/A
7:30 PM66 °FClear.8 mph43%30.12 "HgN/A
7:00 PM68 °FClear.8 mph40%30.12 "HgN/A
Weather by CustomWeather, © 2014

See weather overview